owner,sensor,date,latitude,longitude,vertical_datum,wind_speed,wind_to_direction,wind_speed_of_gust,qcFlag 
DISL,ioos:station:DISL:DISL:1,2017-08-01T00:00:00Z,30.2513,-88.0778,9.68,2.69,154.3,-999.0,'1111122,1111122,1111122' 
DISL,ioos:station:DISL:DISL:1,2017-08-01T00:30:00Z,30.2513,-88.0778,9.68,2.15,143.8,-999.0,'1111122,1111122,1111122' 
DISL,ioos:station:DISL:DISL:1,2017-08-01T01:00:00Z,30.2513,-88.0778,9.68,2.58,131.7,-999.0,'1111122,1111122,1111122' 
DISL,ioos:station:DISL:DISL:1,2017-08-01T01:30:00Z,30.2513,-88.0778,9.68,2.52,124.6,-999.0,'1111122,1111122,1111122' 
DISL,ioos:station:DISL:DISL:1,2017-08-01T02:00:00Z,30.2513,-88.0778,9.68,2.95,119.9,-999.0,'1111122,1111122,1111122' 
DISL,ioos:station:DISL:DISL:1,2017-08-01T02:30:00Z,30.2513,-88.0778,9.68,3.01,115.5,-999.0,'1111122,1111122,1111122' 
DISL,ioos:station:DISL:DISL:1,2017-08-01T03:00:00Z,30.2513,-88.0778,9.68,2.51,100.2,-999.0,'1111122,1111122,1111122' 
DISL,ioos:station:DISL:DISL:1,2017-08-01T03:30:00Z,30.2513,-88.0778,9.68,1.73,102.6,-999.0,'1111122,1111122,1111122' 
DISL,ioos:station:DISL:DISL:1,2017-08-01T04:00:00Z,30.2513,-88.0778,9.68,1.98,85.1,-999.0,'1111122,1111122,1111122' 
DISL,ioos:station:DISL:DISL:1,2017-08-01T04:30:00Z,30.2513,-88.0778,9.68,2.12,80.3,-999.0,'1111122,1111122,1111122' 
DISL,ioos:station:DISL:DISL:1,2017-08-01T05:00:00Z,30.2513,-88.0778,9.68,3.49,68.12,-999.0,'1111122,1111122,1111122' 
DISL,ioos:station:DISL:DISL:1,2017-08-01T05:30:00Z,30.2513,-88.0778,9.68,4.97,73.6,-999.0,'1111122,1111122,1111122' 
DISL,ioos:station:DISL:DISL:1,2017-08-01T06:00:00Z,30.2513,-88.0778,9.68,5.51,67.49,-999.0,'1111122,1111122,1111122' 
DISL,ioos:station:DISL:DISL:1,2017-08-01T06:30:00Z,30.2513,-88.0778,9.68,5.06,72.94,-999.0,'1111122,1111122,1111122' 
DISL,ioos:station:DISL:DISL:1,2017-08-01T07:00:00Z,30.2513,-88.0778,9.68,5.22,72.0,-999.0,'1111122,1111122,1111122' 
DISL,ioos:station:DISL:DISL:1,2017-08-01T07:30:00Z,30.2513,-88.0778,9.68,5.23,73.95,-999.0,'1111122,1111122,1111122' 
DISL,ioos:station:DISL:DISL:1,2017-08-01T08:00:00Z,30.2513,-88.0778,9.68,5.91,75.28,-999.0,'1111122,1111122,1111122' 
DISL,ioos:station:DISL:DISL:1,2017-08-01T08:30:00Z,30.2513,-88.0778,9.68,5.67,75.89,-999.0,'1111122,1111122,1111122' 
DISL,ioos:station:DISL:DISL:1,2017-08-01T09:00:00Z,30.2513,-88.0778,9.68,5.67,71.14,-999.0,'1111122,1111122,1111122' 
DISL,ioos:station:DISL:DISL:1,2017-08-01T09:30:00Z,30.2513,-88.0778,9.68,4.36,63.73,-999.0,'1111122,1111122,1111122' 
DISL,ioos:station:DISL:DISL:1,2017-08-01T10:00:00Z,30.2513,-88.0778,9.68,4.79,66.85,-999.0,'1111122,1111122,1111122' 
DISL,ioos:station:DISL:DISL:1,2017-08-01T10:30:00Z,30.2513,-88.0778,9.68,5.29,76.96,-999.0,'1111122,1111122,1111122' 
DISL,ioos:station:DISL:DISL:1,2017-08-01T11:00:00Z,30.2513,-88.0778,9.68,5.33,78.14,-999.0,'1111122,1111122,1111122' 
DISL,ioos:station:DISL:DISL:1,2017-08-01T11:30:00Z,30.2513,-88.0778,9.68,5.02,70.23,-999.0,'1111122,1111122,1111122' 
DISL,ioos:station:DISL:DISL:1,2017-08-01T12:00:00Z,30.2513,-88.0778,9.68,5.02,67.77,-999.0,'1111122,1111122,1111122' 
DISL,ioos:station:DISL:DISL:1,2017-08-01T12:30:00Z,30.2513,-88.0778,9.68,5.03,67.39,-999.0,'1111122,1111122,1111122' 
DISL,ioos:station:DISL:DISL:1,2017-08-01T13:00:00Z,30.2513,-88.0778,9.68,5.12,68.43,-999.0,'1111122,1111122,1111122' 
DISL,ioos:station:DISL:DISL:1,2017-08-01T13:30:00Z,30.2513,-88.0778,9.68,5.54,72.45,-999.0,'1111122,1111122,1111122' 
DISL,ioos:station:DISL:DISL:1,2017-08-01T14:00:00Z,30.2513,-88.0778,9.68,5.96,72.32,-999.0,'1111122,1111122,1111122' 
DISL,ioos:station:DISL:DISL:1,2017-08-01T14:30:00Z,30.2513,-88.0778,9.68,5.58,76.63,-999.0,'1111122,1111122,1111122' 
DISL,ioos:station:DISL:DISL:1,2017-08-01T15:00:00Z,30.2513,-88.0778,9.68,5.74,75.55,-999.0,'1111122,1111122,1111122' 
DISL,ioos:station:DISL:DISL:1,2017-08-01T15:30:00Z,30.2513,-88.0778,9.68,5.6,74.51,-999.0,'1111122,1111122,1111122' 
DISL,ioos:station:DISL:DISL:1,2017-08-01T16:00:00Z,30.2513,-88.0778,9.68,5.51,81.0,-999.0,'1111122,1111122,1111122' 
DISL,ioos:station:DISL:DISL:1,2017-08-01T16:30:00Z,30.2513,-88.0778,9.68,5.17,97.1,-999.0,'1111122,1111122,1111122' 
DISL,ioos:station:DISL:DISL:1,2017-08-01T17:00:00Z,30.2513,-88.0778,9.68,4.23,95.8,-999.0,'1111122,1111122,1111122' 
DISL,ioos:station:DISL:DISL:1,2017-08-01T17:30:00Z,30.2513,-88.0778,9.68,3.75,85.3,-999.0,'1111122,1111122,1111122' 
DISL,ioos:station:DISL:DISL:1,2017-08-01T18:00:00Z,30.2513,-88.0778,9.68,3.42,67.36,-999.0,'1111122,1111122,1111122' 
DISL,ioos:station:DISL:DISL:1,2017-08-01T18:30:00Z,30.2513,-88.0778,9.68,2.94,81.0,-999.0,'1111122,1111122,1111122' 
DISL,ioos:station:DISL:DISL:1,2017-08-01T19:00:00Z,30.2513,-88.0778,9.68,2.18,70.71,-999.0,'1111122,1111122,1111122' 
DISL,ioos:station:DISL:DISL:1,2017-08-01T19:30:00Z,30.2513,-88.0778,9.68,2.42,107.7,-999.0,'1111122,1111122,1111122' 
DISL,ioos:station:DISL:DISL:1,2017-08-01T20:00:00Z,30.2513,-88.0778,9.68,3.53,127.9,-999.0,'1111122,1111122,1111122' 
DISL,ioos:station:DISL:DISL:1,2017-08-01T20:30:00Z,30.2513,-88.0778,9.68,3.25,131.9,-999.0,'1111122,1111122,1111122' 
DISL,ioos:station:DISL:DISL:1,2017-08-01T21:00:00Z,30.2513,-88.0778,9.68,3.19,121.4,-999.0,'1111122,1111122,1111122' 
DISL,ioos:station:DISL:DISL:1,2017-08-01T21:30:00Z,30.2513,-88.0778,9.68,2.94,119.6,-999.0,'1111122,1111122,1111122' 
DISL,ioos:station:DISL:DISL:1,2017-08-01T22:00:00Z,30.2513,-88.0778,9.68,2.37,117.0,-999.0,'1111122,1111122,1111122' 
DISL,ioos:station:DISL:DISL:1,2017-08-01T22:30:00Z,30.2513,-88.0778,9.68,2.45,122.2,-999.0,'1111122,1111122,1111122' 
DISL,ioos:station:DISL:DISL:1,2017-08-01T23:00:00Z,30.2513,-88.0778,9.68,2.27,137.4,-999.0,'1111122,1111122,1111122' 
DISL,ioos:station:DISL:DISL:1,2017-08-01T23:30:00Z,30.2513,-88.0778,9.68,2.16,146.3,-999.0,'1111122,1111122,1111122' 
DISL,ioos:station:DISL:DISL:1,2017-08-02T00:00:00Z,30.2513,-88.0778,9.68,2.35,135.9,-999.0,'1111122,1111122,1111122' 
DISL,ioos:station:DISL:DISL:1,2017-08-02T00:30:00Z,30.2513,-88.0778,9.68,2.3,152.0,-999.0,'1111122,1111122,1111122' 
DISL,ioos:station:DISL:DISL:1,2017-08-02T01:00:00Z,30.2513,-88.0778,9.68,2.11,145.8,-999.0,'1111122,1111122,1111122' 
DISL,ioos:station:DISL:DISL:1,2017-08-02T01:30:00Z,30.2513,-88.0778,9.68,2.27,160.6,-999.0,'1111122,1111122,1111122' 
DISL,ioos:station:DISL:DISL:1,2017-08-02T02:00:00Z,30.2513,-88.0778,9.68,2.45,159.9,-999.0,'1111122,1111122,1111122' 
DISL,ioos:station:DISL:DISL:1,2017-08-02T02:30:00Z,30.2513,-88.0778,9.68,2.6,137.0,-999.0,'1111122,1111122,1111122' 
DISL,ioos:station:DISL:DISL:1,2017-08-02T03:00:00Z,30.2513,-88.0778,9.68,2.85,140.2,-999.0,'1111122,1111122,1111122' 
DISL,ioos:station:DISL:DISL:1,2017-08-02T03:30:00Z,30.2513,-88.0778,9.68,2.69,131.4,-999.0,'1111122,1111122,1111122' 
DISL,ioos:station:DISL:DISL:1,2017-08-02T04:00:00Z,30.2513,-88.0778,9.68,3.68,124.7,-999.0,'1111122,1111122,1111122' 
DISL,ioos:station:DISL:DISL:1,2017-08-02T04:30:00Z,30.2513,-88.0778,9.68,2.83,116.4,-999.0,'1111122,1111122,1111122' 
DISL,ioos:station:DISL:DISL:1,2017-08-02T05:00:00Z,30.2513,-88.0778,9.68,1.74,131.6,-999.0,'1111122,1111122,1111122' 
DISL,ioos:station:DISL:DISL:1,2017-08-02T05:30:00Z,30.2513,-88.0778,9.68,1.98,102.6,-999.0,'1111122,1111122,1111122' 
DISL,ioos:station:DISL:DISL:1,2017-08-02T06:00:00Z,30.2513,-88.0778,9.68,1.86,94.5,-999.0,'1111122,1111122,1111122' 
DISL,ioos:station:DISL:DISL:1,2017-08-02T06:30:00Z,30.2513,-88.0778,9.68,2.02,94.7,-999.0,'1111122,1111122,1111122' 
DISL,ioos:station:DISL:DISL:1,2017-08-02T07:00:00Z,30.2513,-88.0778,9.68,2.11,87.5,-999.0,'1111122,1111122,1111122' 
DISL,ioos:station:DISL:DISL:1,2017-08-02T07:30:00Z,30.2513,-88.0778,9.68,2.23,76.04,-999.0,'1111122,1111122,1111122' 
DISL,ioos:station:DISL:DISL:1,2017-08-02T08:00:00Z,30.2513,-88.0778,9.68,2.11,74.42,-999.0,'1111122,1111122,1111122' 
DISL,ioos:station:DISL:DISL:1,2017-08-02T08:30:00Z,30.2513,-88.0778,9.68,2.21,66.44,-999.0,'1111122,1111122,1111122' 
DISL,ioos:station:DISL:DISL:1,2017-08-02T09:00:00Z,30.2513,-88.0778,9.68,2.97,69.19,-999.0,'1111122,1111122,1111122' 
DISL,ioos:station:DISL:DISL:1,2017-08-02T09:30:00Z,30.2513,-88.0778,9.68,2.81,62.45,-999.0,'1111122,1111122,1111122' 
DISL,ioos:station:DISL:DISL:1,2017-08-02T10:00:00Z,30.2513,-88.0778,9.68,2.76,59.82,-999.0,'1111122,1111122,1111122' 
DISL,ioos:station:DISL:DISL:1,2017-08-02T10:30:00Z,30.2513,-88.0778,9.68,2.95,58.75,-999.0,'1111122,1111122,1111122' 
DISL,ioos:station:DISL:DISL:1,2017-08-02T11:00:00Z,30.2513,-88.0778,9.68,3.39,50.87,-999.0,'1111122,1111122,1111122' 
DISL,ioos:station:DISL:DISL:1,2017-08-02T11:30:00Z,30.2513,-88.0778,9.68,4.24,38.49,-999.0,'1111122,1111122,1111122' 
DISL,ioos:station:DISL:DISL:1,2017-08-02T12:00:00Z,30.2513,-88.0778,9.68,4.82,37.0,-999.0,'1111122,1111122,1111122' 
DISL,ioos:station:DISL:DISL:1,2017-08-02T12:30:00Z,30.2513,-88.0778,9.68,5.32,38.01,-999.0,'1111122,1111122,1111122' 
DISL,ioos:station:DISL:DISL:1,2017-08-02T13:00:00Z,30.2513,-88.0778,9.68,4.72,38.31,-999.0,'1111122,1111122,1111122' 
DISL,ioos:station:DISL:DISL:1,2017-08-02T13:30:00Z,30.2513,-88.0778,9.68,5.76,50.51,-999.0,'1111122,1111122,1111122' 
DISL,ioos:station:DISL:DISL:1,2017-08-02T14:00:00Z,30.2513,-88.0778,9.68,5.31,48.4,-999.0,'1111122,1111122,1111122' 
DISL,ioos:station:DISL:DISL:1,2017-08-02T14:30:00Z,30.2513,-88.0778,9.68,3.28,61.6,-999.0,'1111122,1111122,1111122' 
DISL,ioos:station:DISL:DISL:1,2017-08-02T15:00:00Z,30.2513,-88.0778,9.68,2.87,58.93,-999.0,'1111122,1111122,1111122' 
DISL,ioos:station:DISL:DISL:1,2017-08-02T15:30:00Z,30.2513,-88.0778,9.68,2.78,45.87,-999.0,'1111122,1111122,1111122' 
DISL,ioos:station:DISL:DISL:1,2017-08-02T16:00:00Z,30.2513,-88.0778,9.68,2.55,42.87,-999.0,'1111122,1111122,1111122' 
DISL,ioos:station:DISL:DISL:1,2017-08-02T16:30:00Z,30.2513,-88.0778,9.68,2.49,51.5,-999.0,'1111122,1111122,1111122' 
DISL,ioos:station:DISL:DISL:1,2017-08-02T17:00:00Z,30.2513,-88.0778,9.68,2.45,33.92,-999.0,'1111122,1111122,1111122' 
DISL,ioos:station:DISL:DISL:1,2017-08-02T17:30:00Z,30.2513,-88.0778,9.68,1.65,30.01,-999.0,'1111122,1111122,1111122' 
DISL,ioos:station:DISL:DISL:1,2017-08-02T18:00:00Z,30.2513,-88.0778,9.68,1.27,33.99,-999.0,'1111122,1111122,1111122' 
DISL,ioos:station:DISL:DISL:1,2017-08-02T18:30:00Z,30.2513,-88.0778,9.68,0.42,32.06,-999.0,'1111122,1111122,1111122' 
DISL,ioos:station:DISL:DISL:1,2017-08-02T19:00:00Z,30.2513,-88.0778,9.68,1.83,132.7,-999.0,'1111122,1111122,1111122' 
DISL,ioos:station:DISL:DISL:1,2017-08-02T19:30:00Z,30.2513,-88.0778,9.68,1.56,143.7,-999.0,'1111122,1111122,1111122' 
DISL,ioos:station:DISL:DISL:1,2017-08-02T20:00:00Z,30.2513,-88.0778,9.68,1.59,130.4,-999.0,'1111122,1111122,1111122' 
DISL,ioos:station:DISL:DISL:1,2017-08-02T20:30:00Z,30.2513,-88.0778,9.68,2.23,145.0,-999.0,'1111122,1111122,1111122' 
DISL,ioos:station:DISL:DISL:1,2017-08-02T21:00:00Z,30.2513,-88.0778,9.68,2.65,129.7,-999.0,'1111122,1111122,1111122' 
DISL,ioos:station:DISL:DISL:1,2017-08-02T21:30:00Z,30.2513,-88.0778,9.68,2.24,141.8,-999.0,'1111122,1111122,1111122' 
DISL,ioos:station:DISL:DISL:1,2017-08-02T22:00:00Z,30.2513,-88.0778,9.68,2.4,137.3,-999.0,'1111122,1111122,1111122' 
DISL,ioos:station:DISL:DISL:1,2017-08-02T22:30:00Z,30.2513,-88.0778,9.68,3.14,154.1,-999.0,'1111122,1111122,1111122' 
DISL,ioos:station:DISL:DISL:1,2017-08-02T23:00:00Z,30.2513,-88.0778,9.68,3.04,155.6,-999.0,'1111122,1111122,1111122' 
DISL,ioos:station:DISL:DISL:1,2017-08-02T23:30:00Z,30.2513,-88.0778,9.68,2.24,175.1,-999.0,'1111122,1111122,1111122' 
DISL,ioos:station:DISL:DISL:1,2017-08-03T00:00:00Z,30.2513,-88.0778,9.68,1.92,182.0,-999.0,'1111122,1111122,1111122' 
DISL,ioos:station:DISL:DISL:1,2017-08-03T00:30:00Z,30.2513,-88.0778,9.68,1.82,177.7,-999.0,'1111122,1111122,1111122' 
DISL,ioos:station:DISL:DISL:1,2017-08-03T01:00:00Z,30.2513,-88.0778,9.68,1.81,200.4,-999.0,'1111122,1111122,1111122' 
DISL,ioos:station:DISL:DISL:1,2017-08-03T01:30:00Z,30.2513,-88.0778,9.68,1.46,212.9,-999.0,'1111122,1111122,1111122' 
DISL,ioos:station:DISL:DISL:1,2017-08-03T02:00:00Z,30.2513,-88.0778,9.68,1.64,198.7,-999.0,'1111122,1111122,1111122' 
DISL,ioos:station:DISL:DISL:1,2017-08-03T02:30:00Z,30.2513,-88.0778,9.68,1.81,189.8,-999.0,'1111122,1111122,1111122' 
DISL,ioos:station:DISL:DISL:1,2017-08-03T03:00:00Z,30.2513,-88.0778,9.68,1.84,195.0,-999.0,'1111122,1111122,1111122' 
DISL,ioos:station:DISL:DISL:1,2017-08-03T03:30:00Z,30.2513,-88.0778,9.68,1.09,197.2,-999.0,'1111122,1111122,1111122' 
DISL,ioos:station:DISL:DISL:1,2017-08-03T04:00:00Z,30.2513,-88.0778,9.68,1.01,194.9,-999.0,'1111122,1111122,1111122' 
DISL,ioos:station:DISL:DISL:1,2017-08-03T04:30:00Z,30.2513,-88.0778,9.68,0.71,203.4,-999.0,'1111122,1111122,1111122' 
DISL,ioos:station:DISL:DISL:1,2017-08-03T05:00:00Z,30.2513,-88.0778,9.68,1.06,187.1,-999.0,'1111122,1111122,1111122' 
DISL,ioos:station:DISL:DISL:1,2017-08-03T05:30:00Z,30.2513,-88.0778,9.68,0.77,240.5,-999.0,'1111122,1111122,1111122' 
DISL,ioos:station:DISL:DISL:1,2017-08-03T06:00:00Z,30.2513,-88.0778,9.68,1.42,287.7,-999.0,'1111122,1111122,1111122' 
DISL,ioos:station:DISL:DISL:1,2017-08-03T06:30:00Z,30.2513,-88.0778,9.68,2.13,334.2,-999.0,'1111122,1111122,1111122' 
DISL,ioos:station:DISL:DISL:1,2017-08-03T07:00:00Z,30.2513,-88.0778,9.68,3.89,342.9,-999.0,'1111122,1111122,1111122' 
DISL,ioos:station:DISL:DISL:1,2017-08-03T07:30:00Z,30.2513,-88.0778,9.68,3.99,353.8,-999.0,'1111122,1111122,1111122' 
DISL,ioos:station:DISL:DISL:1,2017-08-03T08:00:00Z,30.2513,-88.0778,9.68,4.55,335.4,-999.0,'1111122,1111122,1111122' 
DISL,ioos:station:DISL:DISL:1,2017-08-03T08:30:00Z,30.2513,-88.0778,9.68,5.11,349.1,-999.0,'1111122,1111122,1111122' 
DISL,ioos:station:DISL:DISL:1,2017-08-03T09:00:00Z,30.2513,-88.0778,9.68,4.55,357.5,-999.0,'1111122,1111122,1111122' 
DISL,ioos:station:DISL:DISL:1,2017-08-03T09:30:00Z,30.2513,-88.0778,9.68,5.01,16.19,-999.0,'1111122,1111122,1111122' 
DISL,ioos:station:DISL:DISL:1,2017-08-03T10:00:00Z,30.2513,-88.0778,9.68,6.77,4.464,-999.0,'1111122,1111122,1111122' 
DISL,ioos:station:DISL:DISL:1,2017-08-03T10:30:00Z,30.2513,-88.0778,9.68,6.68,13.15,-999.0,'1111122,1111122,1111122' 
DISL,ioos:station:DISL:DISL:1,2017-08-03T11:00:00Z,30.2513,-88.0778,9.68,7.06,34.24,-999.0,'1111122,1111122,1111122' 
DISL,ioos:station:DISL:DISL:1,2017-08-03T11:30:00Z,30.2513,-88.0778,9.68,6.62,40.68,-999.0,'1111122,1111122,1111122' 
DISL,ioos:station:DISL:DISL:1,2017-08-03T12:00:00Z,30.2513,-88.0778,9.68,6.25,37.86,-999.0,'1111122,1111122,1111122' 
DISL,ioos:station:DISL:DISL:1,2017-08-03T12:30:00Z,30.2513,-88.0778,9.68,5.21,50.18,-999.0,'1111122,1111122,1111122' 
DISL,ioos:station:DISL:DISL:1,2017-08-03T13:00:00Z,30.2513,-88.0778,9.68,3.51,53.16,-999.0,'1111122,1111122,1111122' 
DISL,ioos:station:DISL:DISL:1,2017-08-03T13:30:00Z,30.2513,-88.0778,9.68,4.02,72.0,-999.0,'1111122,1111122,1111122' 
DISL,ioos:station:DISL:DISL:1,2017-08-03T14:00:00Z,30.2513,-88.0778,9.68,5.36,83.9,-999.0,'1111122,1111122,1111122' 
DISL,ioos:station:DISL:DISL:1,2017-08-03T14:30:00Z,30.2513,-88.0778,9.68,6.07,76.43,-999.0,'1111122,1111122,1111122' 
DISL,ioos:station:DISL:DISL:1,2017-08-03T15:00:00Z,30.2513,-88.0778,9.68,6.63,90.4,-999.0,'1111122,1111122,1111122' 
DISL,ioos:station:DISL:DISL:1,2017-08-03T15:30:00Z,30.2513,-88.0778,9.68,5.97,89.4,-999.0,'1111122,1111122,1111122' 
DISL,ioos:station:DISL:DISL:1,2017-08-03T16:00:00Z,30.2513,-88.0778,9.68,6.63,86.8,-999.0,'1111122,1111122,1111122' 
DISL,ioos:station:DISL:DISL:1,2017-08-03T16:30:00Z,30.2513,-88.0778,9.68,6.35,92.2,-999.0,'1111122,1111122,1111122' 
DISL,ioos:station:DISL:DISL:1,2017-08-03T17:00:00Z,30.2513,-88.0778,9.68,6.07,89.3,-999.0,'1111122,1111122,1111122' 
DISL,ioos:station:DISL:DISL:1,2017-08-03T17:30:00Z,30.2513,-88.0778,9.68,5.62,71.59,-999.0,'1111122,1111122,1111122' 
DISL,ioos:station:DISL:DISL:1,2017-08-03T18:00:00Z,30.2513,-88.0778,9.68,6.69,72.31,-999.0,'1111122,1111122,1111122' 
DISL,ioos:station:DISL:DISL:1,2017-08-03T18:30:00Z,30.2513,-88.0778,9.68,5.91,72.39,-999.0,'1111122,1111122,1111122' 
DISL,ioos:station:DISL:DISL:1,2017-08-03T19:00:00Z,30.2513,-88.0778,9.68,4.96,75.76,-999.0,'1111122,1111122,1111122' 
DISL,ioos:station:DISL:DISL:1,2017-08-03T19:30:00Z,30.2513,-88.0778,9.68,4.18,76.09,-999.0,'1111122,1111122,1111122' 
DISL,ioos:station:DISL:DISL:1,2017-08-03T20:00:00Z,30.2513,-88.0778,9.68,3.22,59.11,-999.0,'1111122,1111122,1111122' 
DISL,ioos:station:DISL:DISL:1,2017-08-03T20:30:00Z,30.2513,-88.0778,9.68,4.47,20.97,-999.0,'1111122,1111122,1111122' 
DISL,ioos:station:DISL:DISL:1,2017-08-03T21:00:00Z,30.2513,-88.0778,9.68,3.96,19.22,-999.0,'1111122,1111122,1111122' 
DISL,ioos:station:DISL:DISL:1,2017-08-03T21:30:00Z,30.2513,-88.0778,9.68,3.78,33.96,-999.0,'1111122,1111122,1111122' 
DISL,ioos:station:DISL:DISL:1,2017-08-03T22:00:00Z,30.2513,-88.0778,9.68,2.91,44.39,-999.0,'1111122,1111122,1111122' 
DISL,ioos:station:DISL:DISL:1,2017-08-03T22:30:00Z,30.2513,-88.0778,9.68,1.49,32.95,-999.0,'1111122,1111122,1111122' 
DISL,ioos:station:DISL:DISL:1,2017-08-03T23:00:00Z,30.2513,-88.0778,9.68,2.65,56.64,-999.0,'1111122,1111122,1111122' 
DISL,ioos:station:DISL:DISL:1,2017-08-03T23:30:00Z,30.2513,-88.0778,9.68,0.63,62.87,-999.0,'1111122,1111122,1111122' 
DISL,ioos:station:DISL:DISL:1,2017-08-04T00:00:00Z,30.2513,-88.0778,9.68,0.64,81.7,-999.0,'1111122,1111122,1111122' 
DISL,ioos:station:DISL:DISL:1,2017-08-04T00:30:00Z,30.2513,-88.0778,9.68,0.59,96.0,-999.0,'1111122,1111122,1111122' 
DISL,ioos:station:DISL:DISL:1,2017-08-04T01:00:00Z,30.2513,-88.0778,9.68,0.71,83.8,-999.0,'1111122,1111122,1111122' 
DISL,ioos:station:DISL:DISL:1,2017-08-04T01:30:00Z,30.2513,-88.0778,9.68,0.29,88.4,-999.0,'1111122,1111122,1111122' 
DISL,ioos:station:DISL:DISL:1,2017-08-04T02:00:00Z,30.2513,-88.0778,9.68,1.24,187.5,-999.0,'1111122,1111122,1111122' 
DISL,ioos:station:DISL:DISL:1,2017-08-04T02:30:00Z,30.2513,-88.0778,9.68,2.14,176.7,-999.0,'1111122,1111122,1111122' 
DISL,ioos:station:DISL:DISL:1,2017-08-04T03:00:00Z,30.2513,-88.0778,9.68,2.04,188.2,-999.0,'1111122,1111122,1111122' 
DISL,ioos:station:DISL:DISL:1,2017-08-04T03:30:00Z,30.2513,-88.0778,9.68,1.92,206.5,-999.0,'1111122,1111122,1111122' 
DISL,ioos:station:DISL:DISL:1,2017-08-04T04:00:00Z,30.2513,-88.0778,9.68,2.66,210.2,-999.0,'1111122,1111122,1111122' 
DISL,ioos:station:DISL:DISL:1,2017-08-04T04:30:00Z,30.2513,-88.0778,9.68,2.6,201.8,-999.0,'1111122,1111122,1111122' 
DISL,ioos:station:DISL:DISL:1,2017-08-04T05:00:00Z,30.2513,-88.0778,9.68,2.52,208.8,-999.0,'1111122,1111122,1111122' 
DISL,ioos:station:DISL:DISL:1,2017-08-04T05:30:00Z,30.2513,-88.0778,9.68,2.36,220.5,-999.0,'1111122,1111122,1111122' 
DISL,ioos:station:DISL:DISL:1,2017-08-04T06:00:00Z,30.2513,-88.0778,9.68,2.91,209.5,-999.0,'1111122,1111122,1111122' 
DISL,ioos:station:DISL:DISL:1,2017-08-04T06:30:00Z,30.2513,-88.0778,9.68,3.02,213.8,-999.0,'1111122,1111122,1111122' 
DISL,ioos:station:DISL:DISL:1,2017-08-04T07:00:00Z,30.2513,-88.0778,9.68,2.53,208.9,-999.0,'1111122,1111122,1111122' 
DISL,ioos:station:DISL:DISL:1,2017-08-04T07:30:00Z,30.2513,-88.0778,9.68,2.84,207.0,-999.0,'1111122,1111122,1111122' 
DISL,ioos:station:DISL:DISL:1,2017-08-04T08:00:00Z,30.2513,-88.0778,9.68,3.43,224.2,-999.0,'1111122,1111122,1111122' 
DISL,ioos:station:DISL:DISL:1,2017-08-04T08:30:00Z,30.2513,-88.0778,9.68,3.98,218.7,-999.0,'1111122,1111122,1111122' 
DISL,ioos:station:DISL:DISL:1,2017-08-04T09:00:00Z,30.2513,-88.0778,9.68,3.68,223.7,-999.0,'1111122,1111122,1111122' 
DISL,ioos:station:DISL:DISL:1,2017-08-04T09:30:00Z,30.2513,-88.0778,9.68,3.94,219.0,-999.0,'1111122,1111122,1111122' 
DISL,ioos:station:DISL:DISL:1,2017-08-04T10:00:00Z,30.2513,-88.0778,9.68,3.1,220.2,-999.0,'1111122,1111122,1111122' 
DISL,ioos:station:DISL:DISL:1,2017-08-04T10:30:00Z,30.2513,-88.0778,9.68,2.45,227.7,-999.0,'1111122,1111122,1111122' 
DISL,ioos:station:DISL:DISL:1,2017-08-04T11:00:00Z,30.2513,-88.0778,9.68,2.81,221.8,-999.0,'1111122,1111122,1111122' 
DISL,ioos:station:DISL:DISL:1,2017-08-04T11:30:00Z,30.2513,-88.0778,9.68,2.92,228.4,-999.0,'1111122,1111122,1111122' 
DISL,ioos:station:DISL:DISL:1,2017-08-04T12:00:00Z,30.2513,-88.0778,9.68,1.97,209.6,-999.0,'1111122,1111122,1111122' 
DISL,ioos:station:DISL:DISL:1,2017-08-04T12:30:00Z,30.2513,-88.0778,9.68,2.53,213.9,-999.0,'1111122,1111122,1111122' 
DISL,ioos:station:DISL:DISL:1,2017-08-04T13:00:00Z,30.2513,-88.0778,9.68,4.1,315.0,-999.0,'1111122,1111122,1111122' 
DISL,ioos:station:DISL:DISL:1,2017-08-04T13:30:00Z,30.2513,-88.0778,9.68,5.81,321.6,-999.0,'1111122,1111122,1111122' 
DISL,ioos:station:DISL:DISL:1,2017-08-04T14:00:00Z,30.2513,-88.0778,9.68,6.5,329.9,-999.0,'1111122,1111122,1111122' 
DISL,ioos:station:DISL:DISL:1,2017-08-04T14:30:00Z,30.2513,-88.0778,9.68,7.86,324.5,-999.0,'1111122,1111122,1111122' 
DISL,ioos:station:DISL:DISL:1,2017-08-04T15:00:00Z,30.2513,-88.0778,9.68,4.67,334.4,-999.0,'1111122,1111122,1111122' 
DISL,ioos:station:DISL:DISL:1,2017-08-04T15:30:00Z,30.2513,-88.0778,9.68,5.36,298.0,-999.0,'1111122,1111122,1111122' 
DISL,ioos:station:DISL:DISL:1,2017-08-04T16:00:00Z,30.2513,-88.0778,9.68,5.91,276.2,-999.0,'1111122,1111122,1111122' 
DISL,ioos:station:DISL:DISL:1,2017-08-04T16:30:00Z,30.2513,-88.0778,9.68,3.56,265.6,-999.0,'1111122,1111122,1111122' 
DISL,ioos:station:DISL:DISL:1,2017-08-04T17:00:00Z,30.2513,-88.0778,9.68,2.06,225.4,-999.0,'1111122,1111122,1111122' 
DISL,ioos:station:DISL:DISL:1,2017-08-04T17:30:00Z,30.2513,-88.0778,9.68,1.89,240.7,-999.0,'1111122,1111122,1111122' 
DISL,ioos:station:DISL:DISL:1,2017-08-04T18:00:00Z,30.2513,-88.0778,9.68,1.35,255.1,-999.0,'1111122,1111122,1111122' 
DISL,ioos:station:DISL:DISL:1,2017-08-04T18:30:00Z,30.2513,-88.0778,9.68,2.11,230.3,-999.0,'1111122,1111122,1111122' 
DISL,ioos:station:DISL:DISL:1,2017-08-04T19:00:00Z,30.2513,-88.0778,9.68,2.98,218.5,-999.0,'1111122,1111122,1111122' 
DISL,ioos:station:DISL:DISL:1,2017-08-04T19:30:00Z,30.2513,-88.0778,9.68,3.59,216.9,-999.0,'1111122,1111122,1111122' 
DISL,ioos:station:DISL:DISL:1,2017-08-04T20:00:00Z,30.2513,-88.0778,9.68,4.03,208.6,-999.0,'1111122,1111122,1111122' 
DISL,ioos:station:DISL:DISL:1,2017-08-04T20:30:00Z,30.2513,-88.0778,9.68,3.47,207.7,-999.0,'1111122,1111122,1111122' 
DISL,ioos:station:DISL:DISL:1,2017-08-04T21:00:00Z,30.2513,-88.0778,9.68,3.51,210.9,-999.0,'1111122,1111122,1111122' 
DISL,ioos:station:DISL:DISL:1,2017-08-04T21:30:00Z,30.2513,-88.0778,9.68,4.09,213.6,-999.0,'1111122,1111122,1111122' 
DISL,ioos:station:DISL:DISL:1,2017-08-04T22:00:00Z,30.2513,-88.0778,9.68,4.31,212.8,-999.0,'1111122,1111122,1111122' 
DISL,ioos:station:DISL:DISL:1,2017-08-04T22:30:00Z,30.2513,-88.0778,9.68,4.0,225.4,-999.0,'1111122,1111122,1111122' 
DISL,ioos:station:DISL:DISL:1,2017-08-04T23:00:00Z,30.2513,-88.0778,9.68,3.82,235.0,-999.0,'1111122,1111122,1111122' 
DISL,ioos:station:DISL:DISL:1,2017-08-04T23:30:00Z,30.2513,-88.0778,9.68,3.83,246.3,-999.0,'1111122,1111122,1111122' 
DISL,ioos:station:DISL:DISL:1,2017-08-05T00:00:00Z,30.2513,-88.0778,9.68,3.93,236.9,-999.0,'1111122,1111122,1111122' 
DISL,ioos:station:DISL:DISL:1,2017-08-05T00:30:00Z,30.2513,-88.0778,9.68,4.0,242.6,-999.0,'1111122,1111122,1111122' 
DISL,ioos:station:DISL:DISL:1,2017-08-05T01:00:00Z,30.2513,-88.0778,9.68,3.6,235.8,-999.0,'1111122,1111122,1111122' 
DISL,ioos:station:DISL:DISL:1,2017-08-05T01:30:00Z,30.2513,-88.0778,9.68,3.47,244.2,-999.0,'1111122,1111122,1111122' 
DISL,ioos:station:DISL:DISL:1,2017-08-05T02:00:00Z,30.2513,-88.0778,9.68,3.7,245.1,-999.0,'1111122,1111122,1111122' 
DISL,ioos:station:DISL:DISL:1,2017-08-05T02:30:00Z,30.2513,-88.0778,9.68,3.97,238.1,-999.0,'1111122,1111122,1111122' 
DISL,ioos:station:DISL:DISL:1,2017-08-05T03:00:00Z,30.2513,-88.0778,9.68,2.59,249.7,-999.0,'1111122,1111122,1111122' 
DISL,ioos:station:DISL:DISL:1,2017-08-05T03:30:00Z,30.2513,-88.0778,9.68,2.86,245.4,-999.0,'1111122,1111122,1111122' 
DISL,ioos:station:DISL:DISL:1,2017-08-05T04:00:00Z,30.2513,-88.0778,9.68,2.19,265.5,-999.0,'1111122,1111122,1111122' 
DISL,ioos:station:DISL:DISL:1,2017-08-05T04:30:00Z,30.2513,-88.0778,9.68,1.96,254.9,-999.0,'1111122,1111122,1111122' 